{"data":{"norad_id":65336,"epoch":"2026-05-25T04:24:37.531872Z","epoch_age_seconds":62637,"freshness":"FRESH","line1":"1 65336U 25189P   26145.18376773  .00015894  00000+0  54746-3 0  9993","line2":"2 65336  53.1596 211.7714 0001387  94.3784 265.7376 15.30207595 42819","mean_motion":15.30207595,"eccentricity":0.0001387,"inclination_deg":53.1596,"raan_deg":211.7714,"arg_perigee_deg":94.3784,"mean_anomaly_deg":265.7376,"bstar":0.00054746,"rev_number":4281,"period_min":94.104878625962,"perigee_km":474.24183542543,"apogee_km":476.14294899883,"semimajor_km":6853.3293922121,"source":"CELESTRAK","updated_at":"2026-05-25T13:38:20.760947Z"}}